Погода В Ротбери

Австралия     32°44′31″S   151°20′09″E
темп.,
°C
ветер,
м/с
пор.,
м/с
влажн.,
%
обл.,
%
осадки,
мм/ч
давл.,
гПа
погр.,
м
26 июля, пн
пн2601:00+7сз310685 0.0 1017443
04:00+7сз39734 0.0 1016424
07:00+6зсз311780 0.0 1018372
10:00+13зсз49540 0.0 1019868
13:00+18зсз59406 0.0 10161859
16:00+16зсз49500 0.0 10171620
19:00+10зсз28752 0.0 1020264
22:00+8зсз24885 0.0 102070
27 июля, вт
вт2701:00+8зсз239046 0.0 102060
04:00+8зсз22910 0.0 102052
07:00+7зсз25940 0.0 102290
10:00+15сз37570 0.0 1021659
13:00+18сз47436 0.0 10181359
16:00+17ссз254830 0.0 10171079
19:00+12сз2116526 0.0 1018280
22:00+9зсз228040 0.0 101839
28 июля, ср
ср2801:00+7сз25900 0.0 101693
04:00+6сз25934 0.0 101483
07:00+6сз214895 0.0 1013333
10:00+16сз517454 0.0 1011915
13:00+20сз618364 0.0 10071726
16:00+20сз51742100 0.0 10072409
19:00+14зсз413766 0.1 10091069
22:00+13зсз513743 0.1 1010957
29 июля, чт
чт2901:00+11зсз310670 0.0 1011766
04:00+7зсз24810 0.0 101378
07:00+6зсз28830 0.0 1016171
10:00+13з48380 0.0 10171439
13:00+17з36240 0.0 10152102
16:00+17зюз13280 0.0 1015206
19:00+8юз11480 0.0 101918
22:00+5з11650 0.0 102116
30 июля, пт
пт3001:00+4зсз12770 0.0 102133
04:00+2зсз22880 0.0 102144
07:00+2зсз22890 0.0 102239
10:00+11сз36470 0.0 1022470
13:00+16сз36290 0.0 1018975
16:00+16сз37330 0.0 1017957
19:00+8зсз23550 0.0 101844
22:00+6зсз22640 0.0 101921